Date String (YYYY-MM-DD hh:mm:ss) UTC,Instrument flags,absolute air pressure of the measurement (hPa),sample flow rate (lpm),inlet stack bypass flow (lpm),air temperature of the measurement (°C),ambient temperature measured by the external sensor (°C),aerosol sample conditioner tube jacket temperature (°C),OPC LED temperature (°C),internal box temperature (°C),relative humidity of the measurement (%),span deviation,mass concentration of particles derived from Lorenz-Mie calculation of OPC scattering (μg/m³),mass concentration of particles derived from Lorenz-Mie calculation of OPC scattering (μg/m³),mass concentration of particles derived from Lorenz-Mie calculation of OPC scattering (μg/m³)
DateTimeUTC,F1_M11,P_M11,Q1_M11,Q2_M11,T1_M11,T2_M11,T3_M11,T4_M11,T5_M11,U1_M11,ZSPAN_M11,X0_M11,X2_M11,X1_M11
2023-11-15 10:00:00,SystemResetWarning,0833.2,4.98,000.00,026.7,025.7,000.0,035.1,028.1,7.0,0000.2,0014.81,0005.37,0004.17
2023-11-15 10:01:00,SystemResetWarning,0833.1,5.00,000.00,026.7,025.7,000.0,035.1,028.2,7.0,0001.7,0015.48,0005.49,0004.23
2023-11-15 10:02:00,SystemResetWarning,0833.1,5.00,000.00,026.7,025.8,000.0,035.1,028.2,6.9,0000.3,0015.99,0005.52,0004.27
2023-11-15 10:03:00,SystemResetWarning,0833.2,5.01,000.00,026.7,025.8,000.0,035.1,028.1,6.8,-000.0,0016.08,0005.58,0004.28
2023-11-15 10:04:00,SystemResetWarning,0833.2,5.01,000.00,026.7,025.8,000.0,035.1,028.1,6.8,0000.9,0016.41,0005.66,0004.28
2023-11-15 10:05:00,SystemResetWarning,0833.2,5.00,000.00,026.8,025.7,000.0,035.1,028.2,6.7,0001.8,0016.64,0005.71,0004.27
2023-11-15 10:06:00,SystemResetWarning,0833.2,5.00,000.00,026.8,025.8,000.0,035.1,028.2,6.7,0001.1,0017.08,0005.73,0004.26
2023-11-15 10:07:00,SystemResetWarning,0833.2,5.00,000.00,026.8,025.8,000.0,035.1,028.3,6.7,-000.3,0018.26,0005.78,0004.28
2023-11-15 10:08:00,SystemResetWarning,0833.2,5.00,000.00,026.8,025.8,000.0,035.1,028.3,6.6,-000.3,0018.83,0005.85,0004.30
2023-11-15 10:09:00,SystemResetWarning,0833.3,4.99,000.00,026.7,025.8,000.0,035.1,028.2,6.6,-000.9,0018.56,0005.91,0004.31
2023-11-15 10:10:00,SystemResetWarning,0833.3,5.00,000.00,026.7,025.7,000.0,035.1,028.2,6.7,-001.0,0018.72,0005.92,0004.32
2023-11-15 10:11:00,SystemResetWarning,0833.3,5.00,000.00,026.7,025.7,000.0,035.1,028.2,6.9,0000.6,0018.75,0005.97,0004.36
2023-11-15 10:12:00,SystemResetWarning,0833.3,5.01,000.00,026.7,025.7,000.0,035.1,028.2,6.8,0001.2,0019.15,0006.02,0004.40
2023-11-15 10:13:00,SystemResetWarning,0833.3,5.00,000.00,026.7,025.7,000.0,035.1,028.2,6.8,0001.2,0019.81,0006.13,0004.43
2023-11-15 10:14:00,SystemResetWarning,0833.4,5.00,000.00,026.7,025.7,000.0,035.1,028.2,6.7,0000.6,0019.40,0006.17,0004.45
2023-11-15 10:15:00,SystemResetWarning,0833.4,5.00,000.00,026.7,025.7,000.0,035.1,028.2,6.8,-000.1,0019.40,0006.20,0004.50
2023-11-15 10:16:00,SystemResetWarning,0833.3,5.00,000.00,026.7,025.7,000.0,035.1,028.1,6.8,0001.6,0018.93,0006.25,0004.56
2023-11-15 10:17:00,SystemResetWarning,0833.4,5.00,000.00,026.7,025.8,000.0,035.1,028.2,6.8,0002.7,0018.47,0006.27,0004.59
2023-11-15 10:18:00,SystemResetWarning,0833.4,5.00,000.00,026.7,025.8,000.0,035.1,028.2,6.8,0004.1,0018.18,0006.32,0004.61
2023-11-15 10:19:00,SystemResetWarning,0833.4,5.00,000.00,026.7,025.8,000.0,035.1,028.2,6.8,0004.7,0017.95,0006.33,0004.64
2023-11-15 10:20:00,SystemResetWarning,0833.4,5.00,000.00,026.7,025.8,000.0,035.1,028.2,6.8,0006.0,0019.17,0006.38,0004.67
2023-11-15 10:21:00,SystemResetWarning,0833.4,5.00,000.00,026.7,025.8,000.0,035.1,028.2,6.8,0006.3,0020.44,0006.49,0004.70
2023-11-15 10:22:00,SystemResetWarning,0833.4,5.01,000.00,026.7,025.8,000.0,035.1,028.2,6.8,0007.2,0019.67,0006.44,0004.71
2023-11-15 10:23:00,SystemResetWarning,0833.3,4.99,000.00,026.8,025.8,000.0,035.1,028.2,6.8,0010.9,0020.15,0006.39,0004.72
2023-11-15 10:24:00,SystemResetWarning,0833.3,5.00,000.00,026.8,025.8,000.0,035.1,028.2,6.8,0010.8,0019.90,0006.38,0004.73
2023-11-15 10:25:00,SystemResetWarning,0833.3,5.01,000.00,026.7,025.8,000.0,035.1,028.1,6.8,0010.5,0019.72,0006.37,0004.74
2023-11-15 10:26:00,SystemResetWarning,0833.3,5.00,000.00,026.8,025.8,000.0,035.1,028.1,6.8,0005.1,0019.74,0006.38,0004.75
2023-11-15 10:27:00,SystemResetWarning,0833.3,5.00,000.00,026.7,025.7,000.0,035.1,028.2,6.8,0003.9,0019.48,0006.39,0004.76
2023-11-15 10:28:00,SystemResetWarning,0833.3,5.00,000.00,026.7,025.7,000.0,035.1,028.1,6.8,0009.9,0020.02,0006.41,0004.80
2023-11-15 10:29:00,SystemResetWarning,0833.4,5.00,000.00,026.7,025.7,000.0,035.1,028.1,6.8,0000.8,0020.60,0006.44,0004.85
2023-11-15 10:30:00,SystemResetWarning,0833.3,5.00,000.00,026.7,025.7,000.0,035.1,028.1,6.8,0000.4,0020.70,0006.57,0004.89
2023-11-15 10:31:00,SystemResetWarning,0833.3,5.00,000.00,026.7,025.6,000.0,035.1,028.1,6.8,0002.9,0021.11,0006.56,0004.89
2023-11-15 10:32:00,SystemResetWarning,0833.3,5.00,000.00,026.7,025.6,000.0,035.1,028.1,6.8,0000.1,0020.13,0006.53,0004.89
2023-11-15 10:33:00,SystemResetWarning,0833.3,5.00,000.00,026.7,025.6,000.0,035.1,028.1,6.9,0001.2,0020.32,0006.57,0004.91
2023-11-15 10:34:00,SystemResetWarning,0833.3,5.00,000.00,026.7,025.6,000.0,035.1,028.1,6.9,0006.0,0020.23,0006.73,0004.92
2023-11-15 10:35:00,SystemResetWarning,0833.3,5.00,000.00,026.7,025.6,000.0,035.1,028.0,6.8,0006.6,0020.46,0006.74,0004.93
2023-11-15 10:36:00,SystemResetWarning,0833.3,5.00,000.00,026.7,025.6,000.0,035.1,028.0,6.8,0005.6,0020.23,0006.73,0004.95
2023-11-15 10:37:00,SystemResetWarning,0833.2,5.00,000.00,026.7,025.6,000.0,035.1,028.0,6.8,0007.9,0020.28,0006.70,0004.97
2023-11-15 10:38:00,SystemResetWarning,0833.3,4.99,000.00,026.7,025.5,000.0,035.1,028.0,6.8,0007.8,0020.55,0006.74,0004.97
2023-11-15 10:39:00,SystemResetWarning,0833.2,5.00,000.00,026.7,025.5,000.0,035.1,028.0,6.9,0004.9,0020.88,0006.75,0004.94
2023-11-15 10:40:00,SystemResetWarning,0833.2,5.00,000.00,026.7,025.5,000.0,035.1,028.0,6.9,0008.4,0020.79,0006.75,0004.90
2023-11-15 10:41:00,SystemResetWarning,0833.2,5.00,000.00,026.6,025.5,000.0,035.1,028.0,7.1,0010.4,0020.44,0006.71,0004.90
2023-11-15 10:42:00,SystemResetWarning,0833.3,5.00,000.00,026.6,025.5,000.0,035.1,028.0,7.2,0012.0,0019.04,0006.68,0004.90
2023-11-15 10:43:00,SystemResetWarning,0833.3,5.00,000.00,026.6,025.4,000.0,035.0,028.0,7.1,0011.9,0018.38,0006.69,0004.91
2023-11-15 10:44:00,SystemResetWarning,0833.3,5.00,000.00,026.6,025.4,000.0,035.0,028.0,7.1,0012.1,0018.38,0006.68,0004.91
2023-11-15 10:45:00,SystemResetWarning,0833.2,5.00,000.00,026.6,025.4,000.0,035.0,028.0,7.1,0010.7,0018.59,0006.59,0004.89
2023-11-15 10:46:00,SystemResetWarning,0833.2,5.01,000.00,026.6,025.4,000.0,035.0,028.0,7.1,0006.0,0018.00,0006.57,0004.88
2023-11-15 10:47:00,SystemResetWarning,0833.3,5.01,000.00,026.6,025.4,000.0,035.0,028.0,7.1,0007.8,0017.93,0006.49,0004.83
2023-11-15 10:48:00,SystemResetWarning,0833.3,5.00,000.00,026.6,025.4,000.0,035.0,028.0,7.1,0007.3,0017.73,0006.45,0004.78
2023-11-15 10:49:00,SystemResetWarning,0833.3,5.00,000.00,026.6,025.4,000.0,035.0,027.9,7.2,0007.2,0017.57,0006.37,0004.74
2023-11-15 10:50:00,SystemResetWarning,0833.3,4.99,000.00,026.6,025.4,000.0,035.0,027.9,7.2,0006.0,0017.57,0006.34,0004.72
2023-11-15 10:51:00,SystemResetWarning,0833.4,4.99,000.00,026.6,025.4,000.0,035.0,027.9,7.1,0004.9,0017.63,0006.29,0004.71
2023-11-15 10:52:00,SystemResetWarning,0833.4,5.01,000.00,026.6,025.4,000.0,035.0,027.9,7.1,0006.0,0017.40,0006.22,0004.68
2023-11-15 10:53:00,SystemResetWarning,0833.5,5.01,000.00,026.5,025.4,000.0,035.0,027.9,7.0,0006.1,0018.15,0006.20,0004.65
2023-11-15 10:54:00,SystemResetWarning,0833.4,5.00,000.00,026.5,025.3,000.0,035.0,027.9,7.1,0004.5,0018.37,0006.18,0004.64
2023-11-15 10:55:00,SystemResetWarning,0833.4,4.99,000.00,026.5,025.3,000.0,035.0,027.9,7.1,0002.1,0018.69,0006.05,0004.60
2023-11-15 10:56:00,SystemResetWarning,0833.4,4.99,000.00,026.5,025.3,000.0,034.9,027.9,7.0,0001.2,0018.60,0005.99,0004.57
2023-11-15 10:57:00,SystemResetWarning,0833.4,5.01,000.00,026.5,025.2,000.0,034.9,027.9,7.0,-000.7,0017.51,0005.93,0004.55
2023-11-15 10:58:00,SystemResetWarning,0833.4,5.01,000.00,026.5,025.2,000.0,034.9,027.9,6.9,-002.7,0017.44,0005.97,0004.56
2023-11-15 10:59:00,SystemResetWarning,0833.4,5.00,000.00,026.5,025.2,000.0,034.9,027.8,6.9,-003.0,0019.23,0006.00,0004.58
